Date String (YYYY-MM-DD hh:mm:ss) UTC,Instrument flags,absolute air pressure of the measurement (hPa),sample flow rate (lpm),inlet stack bypass flow (lpm),air temperature of the measurement (°C),ambient temperature measured by the external sensor (°C),aerosol sample conditioner tube jacket temperature (°C),OPC LED temperature (°C),internal box temperature (°C),relative humidity of the measurement (%),span deviation,mass concentration of particles derived from Lorenz-Mie calculation of OPC scattering (μg/m³),mass concentration of particles derived from Lorenz-Mie calculation of OPC scattering (μg/m³),mass concentration of particles derived from Lorenz-Mie calculation of OPC scattering (μg/m³)
DateTimeUTC,F1_M11,P_M11,Q1_M11,Q2_M11,T1_M11,T2_M11,T3_M11,T4_M11,T5_M11,U1_M11,ZSPAN_M11,X0_M11,X2_M11,X1_M11
2023-07-11 11:00:00,SystemResetWarning,0830.2,5.00,000.00,029.5,028.1,000.0,038.0,031.1,17.2,0000.0,0009.73,0004.79,0004.10
2023-07-11 11:01:00,SystemResetWarning,0830.2,5.00,000.00,029.5,028.2,000.0,038.0,031.1,17.3,0000.0,0009.17,0004.82,0004.12
2023-07-11 11:02:00,SystemResetWarning,0830.2,5.00,000.00,029.5,028.2,000.0,038.0,031.1,17.2,0000.0,0009.06,0004.83,0004.13
2023-07-11 11:03:00,SystemResetWarning,0830.2,4.99,000.00,029.6,028.3,000.0,038.0,031.2,17.1,0000.0,0008.92,0004.81,0004.14
2023-07-11 11:04:00,SystemResetWarning,0830.3,5.00,000.00,029.6,028.3,000.0,038.1,031.2,16.9,0000.0,0008.74,0004.82,0004.15
2023-07-11 11:05:00,SystemResetWarning,0830.2,5.00,000.00,029.6,028.4,000.0,038.1,031.2,17.0,0000.0,0008.72,0004.86,0004.17
2023-07-11 11:06:00,SystemResetWarning,0830.3,5.00,000.00,029.6,028.4,000.0,038.1,031.2,16.9,0000.0,0008.59,0004.84,0004.16
2023-07-11 11:07:00,SystemResetWarning,0830.2,5.00,000.00,029.7,028.4,000.0,038.1,031.3,17.2,0000.0,0008.88,0004.83,0004.16
2023-07-11 11:08:00,SystemResetWarning,0830.2,5.00,000.00,029.7,028.5,000.0,038.1,031.3,17.1,0000.0,0008.78,0004.80,0004.16
2023-07-11 11:09:00,SystemResetWarning,0830.3,5.00,000.00,029.7,028.5,000.0,038.1,031.3,17.1,0000.0,0008.73,0004.78,0004.16
2023-07-11 11:10:00,SystemResetWarning,0830.2,5.02,000.00,029.7,028.5,000.0,038.2,031.3,16.9,0000.0,0008.70,0004.77,0004.16
2023-07-11 11:11:00,SystemResetWarning,0830.2,4.99,000.00,029.8,028.5,000.0,038.2,031.4,17.3,0000.0,0008.84,0004.80,0004.17
2023-07-11 11:12:00,SystemResetWarning,0830.2,4.99,000.00,029.8,027.8,000.0,038.1,031.3,17.2,0000.0,0008.85,0004.80,0004.17
2023-07-11 11:13:00,SystemResetWarning,0830.2,5.00,000.00,029.7,025.8,000.0,038.0,030.9,17.3,0000.0,0008.86,0004.78,0004.16
2023-07-11 11:14:00,SystemResetWarning,0830.2,5.01,000.00,029.6,025.3,000.0,037.9,030.7,17.8,0000.0,0008.80,0004.74,0004.16
2023-07-11 11:15:00,SystemResetWarning,0830.2,5.01,000.00,029.5,025.5,000.0,038.0,030.6,17.7,0000.0,0009.16,0004.73,0004.15
2023-07-11 11:16:00,SystemResetWarning,0830.2,5.00,000.00,029.4,025.9,000.0,038.0,030.6,17.2,0000.0,0009.13,0004.72,0004.14
2023-07-11 11:17:00,SystemResetWarning,0830.2,4.99,000.00,029.4,026.3,000.0,038.0,030.7,17.0,0000.0,0009.24,0004.74,0004.14
2023-07-11 11:18:00,SystemResetWarning,0830.3,4.99,000.00,029.3,026.6,000.0,038.0,030.7,16.7,0000.0,0009.03,0004.76,0004.13
2023-07-11 11:19:00,SystemResetWarning,0830.3,5.00,000.00,029.4,026.9,000.0,038.0,030.8,17.2,0000.0,0009.89,0004.80,0004.14
2023-07-11 11:20:00,SystemResetWarning,0830.2,5.01,000.00,029.4,027.2,000.0,038.0,030.9,17.8,0000.0,0010.26,0004.81,0004.14
2023-07-11 11:21:00,SystemResetWarning,0830.3,5.01,000.00,029.4,027.5,000.0,038.0,030.9,18.3,0000.0,0010.34,0004.81,0004.13
2023-07-11 11:22:00,SystemResetWarning,0830.3,4.98,000.00,029.4,027.6,000.0,038.0,031.0,19.2,0000.0,0010.23,0004.78,0004.11
2023-07-11 11:23:00,SystemResetWarning,0830.2,5.00,000.00,029.4,027.8,000.0,038.0,031.0,18.4,0000.0,0010.16,0004.77,0004.11
2023-07-11 11:24:00,SystemResetWarning,0830.2,5.01,000.00,029.4,027.9,000.0,038.0,031.0,17.4,0000.0,0010.50,0004.77,0004.11
2023-07-11 11:25:00,SystemResetWarning,0830.2,4.98,000.00,029.5,028.0,000.0,038.0,031.0,17.1,0000.0,0010.50,0004.81,0004.10
2023-07-11 11:26:00,SystemResetWarning,0830.2,4.99,000.00,029.5,028.1,000.0,038.0,031.1,16.8,0000.0,0010.45,0004.84,0004.10
2023-07-11 11:27:00,SystemResetWarning,0830.2,5.01,000.00,029.5,028.2,000.0,038.0,031.1,16.6,0000.0,0010.40,0004.79,0004.10
2023-07-11 11:28:00,SystemResetWarning,0830.2,5.00,000.00,029.5,028.2,000.0,038.0,031.1,16.6,0000.0,0010.25,0004.75,0004.10
2023-07-11 11:29:00,SystemResetWarning,0830.2,5.00,000.00,029.6,028.3,000.0,038.0,031.1,16.5,0000.0,0010.12,0004.72,0004.09
2023-07-11 11:30:00,SystemResetWarning,0830.3,4.99,000.00,029.6,028.3,000.0,038.0,031.1,16.6,0000.0,0009.27,0004.67,0004.08
2023-07-11 11:31:00,SystemResetWarning,0830.3,5.00,000.00,029.6,028.3,000.0,038.1,031.2,16.5,0000.0,0009.11,0004.64,0004.07
2023-07-11 11:32:00,SystemResetWarning,0830.3,4.99,000.00,029.6,028.4,000.0,038.1,031.2,16.5,0000.0,0009.04,0004.65,0004.06
2023-07-11 11:33:00,SystemResetWarning,0830.3,4.99,000.00,029.7,028.4,000.0,038.1,031.2,16.7,0000.0,0009.16,0004.67,0004.06
2023-07-11 11:34:00,SystemResetWarning,0830.3,5.00,000.00,029.7,028.4,000.0,038.1,031.3,16.7,0000.0,0009.36,0004.68,0004.06
2023-07-11 11:35:00,SystemResetWarning,0830.3,5.00,000.00,029.7,028.5,000.0,038.1,031.3,16.6,0000.0,0009.31,0004.68,0004.05
2023-07-11 11:36:00,SystemResetWarning,0830.4,5.01,000.00,029.7,028.5,000.0,038.1,031.3,16.6,0000.0,0009.37,0004.64,0004.04
2023-07-11 11:37:00,SystemResetWarning,0830.4,5.01,000.00,029.7,028.5,000.0,038.2,031.3,16.5,0000.0,0009.15,0004.61,0004.02
2023-07-11 11:38:00,SystemResetWarning,0830.4,5.00,000.00,029.8,028.6,000.0,038.2,031.4,16.5,0000.0,0009.08,0004.64,0004.01
2023-07-11 11:39:00,SystemResetWarning,0830.5,4.99,000.00,029.8,028.1,000.0,038.2,031.3,16.3,0000.0,0009.21,0004.66,0004.01
2023-07-11 11:40:00,SystemResetWarning,0830.4,4.99,000.00,029.7,026.0,000.0,038.0,031.1,16.4,0000.0,0009.27,0004.67,0004.01
2023-07-11 11:41:00,SystemResetWarning,0830.4,5.00,000.00,029.6,025.2,000.0,037.9,030.9,16.6,0000.0,0009.33,0004.68,0003.99
2023-07-11 11:42:00,SystemResetWarning,0830.4,5.01,000.00,029.5,025.4,000.0,037.9,030.6,16.7,0000.0,0009.16,0004.68,0003.99
2023-07-11 11:43:00,SystemResetWarning,0830.4,5.01,000.00,029.4,025.7,000.0,038.0,030.6,16.8,0000.0,0009.95,0004.68,0003.98
2023-07-11 11:44:00,SystemResetWarning,0830.4,5.00,000.00,029.4,026.2,000.0,038.0,030.7,16.9,0000.0,0010.24,0004.70,0003.98
2023-07-11 11:45:00,SystemResetWarning,0830.6,5.00,000.00,029.4,026.5,000.0,038.0,030.7,16.9,0000.0,0010.11,0004.71,0003.98
2023-07-11 11:46:00,SystemResetWarning,0830.5,5.00,000.00,029.4,026.9,000.0,038.0,030.8,17.0,0000.0,0009.89,0004.68,0003.97
2023-07-11 11:47:00,SystemResetWarning,0830.7,4.98,000.00,029.4,027.1,000.0,038.0,030.8,16.9,0000.0,0009.83,0004.69,0003.97
2023-07-11 11:48:00,SystemResetWarning,0830.6,5.00,000.00,029.4,027.4,000.0,038.0,030.9,17.0,0000.0,0010.18,0004.72,0003.98
2023-07-11 11:49:00,SystemResetWarning,0830.4,5.02,000.00,029.4,027.6,000.0,038.0,030.9,16.9,0000.0,0010.45,0004.71,0003.98
2023-07-11 11:50:00,SystemResetWarning,0830.5,4.99,000.00,029.4,027.7,000.0,038.0,031.0,17.1,0000.0,0010.32,0004.68,0003.98
2023-07-11 11:51:00,SystemResetWarning,0830.6,4.99,000.00,029.4,027.8,000.0,038.0,031.0,16.9,0000.0,0010.37,0004.72,0003.98
2023-07-11 11:52:00,SystemResetWarning,0830.6,5.00,000.00,029.4,027.9,000.0,038.0,031.0,17.0,0000.0,0011.15,0004.77,0003.98
2023-07-11 11:53:00,SystemResetWarning,0830.6,5.00,000.00,029.5,028.0,000.0,038.0,031.0,17.0,0000.0,0011.34,0004.80,0003.98
2023-07-11 11:54:00,SystemResetWarning,0830.6,5.01,000.00,029.5,028.1,000.0,038.0,031.1,17.0,0000.0,0010.59,0004.78,0003.96
2023-07-11 11:55:00,SystemResetWarning,0830.6,4.98,000.00,029.5,028.2,000.0,038.0,031.1,17.1,0000.0,0010.27,0004.75,0003.95
2023-07-11 11:56:00,SystemResetWarning,0830.6,5.01,000.00,029.5,028.2,000.0,038.0,031.1,17.1,0000.0,0010.35,0004.77,0003.95
2023-07-11 11:57:00,SystemResetWarning,0830.6,5.00,000.00,029.6,028.3,000.0,038.0,031.1,17.0,0000.0,0010.41,0004.80,0003.96
2023-07-11 11:58:00,SystemResetWarning,0830.7,5.00,000.00,029.6,028.3,000.0,038.0,031.2,17.1,0000.0,0010.19,0004.80,0003.95
2023-07-11 11:59:00,SystemResetWarning,0830.7,4.99,000.00,029.6,028.3,000.0,038.1,031.2,17.0,0000.0,0009.82,0004.79,0003.95
